NUSAT-48 (HENRIETTA LE*) (60498 NORAD) Tracking and Keplerian Element Data

This shows tracking and keplerian element data for the satellite.

Feedback or suggestion? Click here.




ElementValue
Catalog60498
NameNUSAT-48 (HENRIETTA LE*)
Epoch Orbit866
Epoch Day286.89392438
Epoch Year2024
RAAN1.5518
Inclination97.4356
Eccentricity0.0004723
Argument of Perigee289.6698
Mean Anonmoly70.4027
Mean Motion15.19746178
Decay Rate0.00021707
L11 60498U 24149AG 24286.89392438 .00021707 00000+0 10160-2 0 9991
L22 60498 97.4356 1.5518 0004723 289.6698 70.4027 15.19746178 8666



Live tracking and technical data element details for NUSAT-48 (HENRIETTA LE*) (NORAD 60498). NUSAT-48 (HENRIETTA LE*) can be tracked NOW for your location showing map with azimuth and elevation plus other details from your city location.







IsCatalogInMostPopularTable: catalog: 60498, numindb: 4
Update: records affected: 1



GetName: 60498 NUSAT-48 (HENRIETTA LE*)

Hit Count: updated at: Tue, 03 Dec 2024 03:17:03 GMT